Time,TemperatureF,DewpointF,PressureIn,WindDirection,WindDirectionDegrees,WindSpeedMPH,WindSpeedGustMPH,Humidity,HourlyPrecipIn,Conditions,Clouds,dailyrainin,SoftwareType,DateUTC
2013-08-16 00:01:00,59.9,56.0,30.22,ENE,67,0.0,-999.0,87,0.00,Sunny,,0.00,Open2300\PHP-WU,2013-08-16 04:01:00,
2013-08-16 00:08:00,60.1,56.2,30.21,ENE,67,0.0,-999.0,87,0.00,Sunny,,0.00,Open2300\PHP-WU,2013-08-16 04:08:00,
2013-08-16 00:12:00,59.9,56.0,30.21,ENE,67,0.0,-999.0,87,0.00,Sunny,,0.00,Open2300\PHP-WU,2013-08-16 04:12:00,
2013-08-16 00:16:00,59.9,56.0,30.21,ENE,67,0.0,-999.0,87,0.00,Sunny,,0.00,Open2300\PHP-WU,2013-08-16 04:16:00,
2013-08-16 00:22:00,59.9,56.0,30.21,ENE,67,0.0,-999.0,87,0.00,Sunny,,0.00,Open2300\PHP-WU,2013-08-16 04:22:00,
2013-08-16 00:24:00,60.1,56.2,30.21,ENE,67,0.0,-999.0,87,0.00,Sunny,,0.00,Open2300\PHP-WU,2013-08-16 04:24:00,
2013-08-16 00:30:00,59.9,56.0,30.21,ENE,67,0.0,-999.0,87,0.00,Sunny,,0.00,Open2300\PHP-WU,2013-08-16 04:30:00,
2013-08-16 00:36:00,59.9,56.0,30.21,ENE,67,0.0,-999.0,87,0.00,Sunny,,0.00,Open2300\PHP-WU,2013-08-16 04:36:00,
2013-08-16 00:42:00,59.9,56.0,30.21,ENE,67,0.0,-999.0,87,0.00,Sunny,,0.00,Open2300\PHP-WU,2013-08-16 04:42:00,
2013-08-16 00:48:00,59.9,56.0,30.21,ENE,67,0.0,-999.0,87,0.00,Sunny,,0.00,Open2300\PHP-WU,2013-08-16 04:48:00,
2013-08-16 00:54:00,59.9,56.0,30.21,ENE,67,0.0,-999.0,87,0.00,Sunny,,0.00,Open2300\PHP-WU,2013-08-16 04:54:00,
2013-08-16 01:02:00,59.9,56.0,30.21,ENE,67,0.0,-999.0,87,0.00,Sunny,,0.00,Open2300\PHP-WU,2013-08-16 05:02:00,
2013-08-16 01:08:00,60.1,56.2,30.21,ENE,67,0.0,-999.0,87,0.00,Sunny,,0.00,Open2300\PHP-WU,2013-08-16 05:08:00,
2013-08-16 01:14:00,60.1,56.6,30.21,ENE,67,0.0,-999.0,88,0.00,Sunny,,0.00,Open2300\PHP-WU,2013-08-16 05:14:00,
2013-08-16 01:20:00,59.9,56.4,30.21,ENE,67,0.0,-999.0,88,0.00,Sunny,,0.00,Open2300\PHP-WU,2013-08-16 05:20:00,
2013-08-16 01:26:00,59.9,56.4,30.20,ENE,67,0.0,-999.0,88,0.00,Sunny,,0.00,Open2300\PHP-WU,2013-08-16 05:26:00,
2013-08-16 01:32:00,59.9,56.4,30.20,ENE,67,0.0,-999.0,88,0.00,Sunny,,0.00,Open2300\PHP-WU,2013-08-16 05:32:00,
2013-08-16 01:38:00,59.9,56.4,30.20,ENE,67,0.0,-999.0,88,0.00,Sunny,,0.00,Open2300\PHP-WU,2013-08-16 05:38:00,
2013-08-16 01:44:00,59.9,56.4,30.20,ENE,67,0.0,-999.0,88,0.00,Sunny,,0.00,Open2300\PHP-WU,2013-08-16 05:44:00,
2013-08-16 01:50:00,59.9,56.4,30.20,ENE,67,0.0,-999.0,88,0.00,Sunny,,0.00,Open2300\PHP-WU,2013-08-16 05:50:00,
2013-08-16 01:56:00,59.9,56.4,30.20,ENE,67,0.0,-999.0,88,0.00,Sunny,,0.00,Open2300\PHP-WU,2013-08-16 05:56:00,
2013-08-16 02:02:00,59.9,56.4,30.20,ENE,67,0.0,-999.0,88,0.00,Sunny,,0.00,Open2300\PHP-WU,2013-08-16 06:02:00,
2013-08-16 02:08:00,59.9,56.4,30.20,ENE,67,0.0,-999.0,88,0.00,Sunny,,0.00,Open2300\PHP-WU,2013-08-16 06:08:00,
2013-08-16 02:14:00,60.1,56.6,30.20,ENE,67,0.0,-999.0,88,0.00,Sunny,,0.00,Open2300\PHP-WU,2013-08-16 06:14:00,
2013-08-16 02:20:00,59.9,56.4,30.20,ENE,67,0.0,-999.0,88,0.00,Sunny,,0.00,Open2300\PHP-WU,2013-08-16 06:20:00,
2013-08-16 02:26:00,59.9,56.4,30.19,ENE,67,0.0,-999.0,88,0.00,Sunny,,0.00,Open2300\PHP-WU,2013-08-16 06:26:00,
2013-08-16 02:32:00,59.9,56.4,30.19,ENE,67,0.0,-999.0,88,0.00,Sunny,,0.00,Open2300\PHP-WU,2013-08-16 06:32:00,
2013-08-16 02:38:00,59.7,56.2,30.19,ENE,67,0.0,-999.0,88,0.00,Sunny,,0.00,Open2300\PHP-WU,2013-08-16 06:38:00,
2013-08-16 02:44:00,59.7,56.2,30.19,ENE,67,0.0,-999.0,88,0.00,Sunny,,0.00,Open2300\PHP-WU,2013-08-16 06:44:00,
2013-08-16 02:50:00,59.7,56.2,30.19,ENE,67,0.0,-999.0,88,0.00,Sunny,,0.00,Open2300\PHP-WU,2013-08-16 06:50:00,
2013-08-16 02:56:00,59.7,56.2,30.19,ENE,67,0.0,-999.0,88,0.00,Sunny,,0.00,Open2300\PHP-WU,2013-08-16 06:56:00,
2013-08-16 03:02:00,59.7,56.2,30.19,ENE,67,0.0,-999.0,88,0.00,Sunny,,0.00,Open2300\PHP-WU,2013-08-16 07:02:00,
2013-08-16 03:08:00,59.7,56.2,30.19,ENE,67,0.0,-999.0,88,0.00,Sunny,,0.00,Open2300\PHP-WU,2013-08-16 07:08:00,
2013-08-16 03:14:00,59.7,56.2,30.19,ENE,67,0.0,-999.0,88,0.00,Sunny,,0.00,Open2300\PHP-WU,2013-08-16 07:14:00,
2013-08-16 03:20:00,59.7,56.2,30.19,ENE,67,0.0,-999.0,88,0.00,Sunny,,0.00,Open2300\PHP-WU,2013-08-16 07:20:00,
2013-08-16 03:25:00,59.5,56.0,30.19,ENE,67,0.0,-999.0,88,0.00,Sunny,,0.00,Open2300\PHP-WU,2013-08-16 07:25:00,
2013-08-16 03:32:00,59.4,55.8,30.19,ENE,67,0.0,-999.0,88,0.00,Sunny,,0.00,Open2300\PHP-WU,2013-08-16 07:32:00,
2013-08-16 03:37:00,59.4,55.8,30.18,ENE,67,0.0,-999.0,88,0.00,Sunny,,0.00,Open2300\PHP-WU,2013-08-16 07:37:00,
2013-08-16 03:43:00,59.2,55.7,30.18,ENE,67,0.0,-999.0,88,0.00,Sunny,,0.00,Open2300\PHP-WU,2013-08-16 07:43:00,
2013-08-16 03:49:00,58.8,55.3,30.19,ENE,67,0.0,-999.0,88,0.00,Sunny,,0.00,Open2300\PHP-WU,2013-08-16 07:49:00,
2013-08-16 03:55:00,58.8,55.3,30.19,ENE,67,0.0,-999.0,88,0.00,Sunny,,0.00,Open2300\PHP-WU,2013-08-16 07:55:00,
2013-08-16 04:01:00,58.8,55.3,30.19,ENE,67,0.0,-999.0,88,0.00,Sunny,,0.00,Open2300\PHP-WU,2013-08-16 08:01:00,
2013-08-16 04:07:00,58.8,55.3,30.18,ENE,67,0.0,-999.0,88,0.00,Sunny,,0.00,Open2300\PHP-WU,2013-08-16 08:07:00,
2013-08-16 04:13:00,58.8,55.3,30.19,ENE,67,0.0,-999.0,88,0.00,Sunny,,0.00,Open2300\PHP-WU,2013-08-16 08:13:00,
2013-08-16 04:19:00,58.8,55.3,30.19,ENE,67,0.0,-999.0,88,0.00,Sunny,,0.00,Open2300\PHP-WU,2013-08-16 08:19:00,
2013-08-16 04:25:00,58.6,55.1,30.19,ENE,67,0.0,-999.0,88,0.00,Sunny,,0.00,Open2300\PHP-WU,2013-08-16 08:25:00,
2013-08-16 04:32:00,58.6,55.1,30.19,ENE,67,0.0,-999.0,88,0.00,Sunny,,0.00,Open2300\PHP-WU,2013-08-16 08:32:00,
2013-08-16 04:37:00,58.5,54.9,30.19,ENE,67,0.0,-999.0,88,0.00,Sunny,,0.00,Open2300\PHP-WU,2013-08-16 08:37:00,
2013-08-16 04:43:00,58.3,54.8,30.19,ENE,67,0.0,-999.0,88,0.00,Sunny,,0.00,Open2300\PHP-WU,2013-08-16 08:43:00,
2013-08-16 04:49:00,58.3,54.8,30.19,ENE,67,0.0,-999.0,88,0.00,Sunny,,0.00,Open2300\PHP-WU,2013-08-16 08:49:00,
2013-08-16 04:56:00,58.3,54.8,30.19,ENE,67,0.0,-999.0,88,0.00,Sunny,,0.00,Open2300\PHP-WU,2013-08-16 08:56:00,
2013-08-16 05:01:00,58.1,54.6,30.19,ENE,67,0.0,-999.0,88,0.00,Sunny,,0.00,Open2300\PHP-WU,2013-08-16 09:01:00,
2013-08-16 05:07:00,57.9,54.7,30.19,ENE,67,0.0,-999.0,89,0.00,Sunny,,0.00,Open2300\PHP-WU,2013-08-16 09:07:00,
2013-08-16 05:13:00,57.9,54.7,30.18,ENE,67,0.0,-999.0,89,0.00,Sunny,,0.00,Open2300\PHP-WU,2013-08-16 09:13:00,
2013-08-16 05:19:00,57.9,54.7,30.19,ENE,67,0.0,-999.0,89,0.00,Sunny,,0.00,Open2300\PHP-WU,2013-08-16 09:19:00,
2013-08-16 05:25:00,57.7,54.5,30.19,ENE,67,0.0,-999.0,89,0.00,Sunny,,0.00,Open2300\PHP-WU,2013-08-16 09:25:00,
2013-08-16 05:31:00,57.7,54.5,30.19,ENE,67,0.0,-999.0,89,0.00,Sunny,,0.00,Open2300\PHP-WU,2013-08-16 09:31:00,
2013-08-16 05:37:00,57.7,54.5,30.19,ENE,67,0.0,-999.0,89,0.00,Sunny,,0.00,Open2300\PHP-WU,2013-08-16 09:37:00,
2013-08-16 05:43:00,57.9,54.7,30.19,ENE,67,0.0,-999.0,89,0.00,Sunny,,0.00,Open2300\PHP-WU,2013-08-16 09:43:00,
2013-08-16 05:49:00,57.9,54.7,30.19,ENE,67,0.0,-999.0,89,0.00,Sunny,,0.00,Open2300\PHP-WU,2013-08-16 09:49:00,
2013-08-16 05:55:00,57.7,54.5,30.20,ENE,67,0.0,-999.0,89,0.00,Sunny,,0.00,Open2300\PHP-WU,2013-08-16 09:55:00,
2013-08-16 06:01:00,57.7,54.5,30.20,ENE,67,0.0,-999.0,89,0.00,Sunny,,0.00,Open2300\PHP-WU,2013-08-16 10:01:00,
2013-08-16 06:07:00,57.6,54.4,30.20,ENE,67,0.0,-999.0,89,0.00,Sunny,,0.00,Open2300\PHP-WU,2013-08-16 10:07:00,
2013-08-16 06:13:00,57.7,54.5,30.20,ENE,67,0.0,-999.0,89,0.00,Sunny,,0.00,Open2300\PHP-WU,2013-08-16 10:13:00,
2013-08-16 06:19:00,57.7,54.5,30.20,ENE,67,0.0,-999.0,89,0.00,Sunny,,0.00,Open2300\PHP-WU,2013-08-16 10:19:00,
2013-08-16 06:25:00,57.6,54.4,30.20,ENE,67,0.0,-999.0,89,0.00,Sunny,,0.00,Open2300\PHP-WU,2013-08-16 10:25:00,
2013-08-16 06:31:00,57.4,54.2,30.21,ENE,67,0.0,-999.0,89,0.00,Sunny,,0.00,Open2300\PHP-WU,2013-08-16 10:31:00,
2013-08-16 06:37:00,57.2,54.0,30.21,ENE,67,0.0,-999.0,89,0.00,Sunny,,0.00,Open2300\PHP-WU,2013-08-16 10:37:00,
2013-08-16 06:43:00,57.0,53.8,30.21,ENE,67,0.0,-999.0,89,0.00,Sunny,,0.00,Open2300\PHP-WU,2013-08-16 10:43:00,
2013-08-16 06:49:00,57.0,53.8,30.21,ENE,67,0.0,-999.0,89,0.00,Sunny,,0.00,Open2300\PHP-WU,2013-08-16 10:49:00,
2013-08-16 06:55:00,57.0,53.8,30.21,ENE,67,0.0,-999.0,89,0.00,Sunny,,0.00,Open2300\PHP-WU,2013-08-16 10:55:00,
2013-08-16 07:01:00,57.0,53.5,30.21,ENE,67,0.0,-999.0,88,0.00,Sunny,,0.00,Open2300\PHP-WU,2013-08-16 11:01:00,
2013-08-16 07:07:00,57.0,53.8,30.22,ENE,67,0.0,-999.0,89,0.00,Sunny,,0.00,Open2300\PHP-WU,2013-08-16 11:07:00,
2013-08-16 07:13:00,57.0,53.8,30.22,ENE,67,0.0,-999.0,89,0.00,Sunny,,0.00,Open2300\PHP-WU,2013-08-16 11:13:00,
2013-08-16 07:19:00,57.2,54.0,30.22,ENE,67,0.0,-999.0,89,0.00,Sunny,,0.00,Open2300\PHP-WU,2013-08-16 11:19:00,
2013-08-16 07:25:00,57.4,54.2,30.22,ENE,67,0.0,-999.0,89,0.00,Sunny,,0.00,Open2300\PHP-WU,2013-08-16 11:25:00,
2013-08-16 07:31:00,57.4,54.2,30.22,ENE,67,0.0,-999.0,89,0.00,Sunny,,0.00,Open2300\PHP-WU,2013-08-16 11:31:00,
2013-08-16 07:37:00,57.9,54.7,30.22,ENE,67,0.0,-999.0,89,0.00,Sunny,,0.00,Open2300\PHP-WU,2013-08-16 11:37:00,
2013-08-16 07:43:00,57.9,54.7,30.22,ENE,67,0.0,-999.0,89,0.00,Sunny,,0.00,Open2300\PHP-WU,2013-08-16 11:43:00,
2013-08-16 07:49:00,58.3,55.1,30.22,ENE,67,0.0,-999.0,89,0.00,Sunny,,0.00,Open2300\PHP-WU,2013-08-16 11:49:00,
2013-08-16 07:55:00,58.6,55.4,30.22,ENE,67,0.0,-999.0,89,0.00,Sunny,,0.00,Open2300\PHP-WU,2013-08-16 11:55:00,
2013-08-16 08:01:00,58.8,55.6,30.22,ENE,67,0.0,-999.0,89,0.00,Sunny,,0.00,Open2300\PHP-WU,2013-08-16 12:01:00,
2013-08-16 08:07:00,58.8,55.6,30.22,ENE,67,0.0,-999.0,89,0.00,Sunny,,0.00,Open2300\PHP-WU,2013-08-16 12:07:00,
2013-08-16 08:13:00,59.5,56.3,30.22,NE,45,0.0,-999.0,89,0.00,Sunny,,0.00,Open2300\PHP-WU,2013-08-16 12:13:00,
2013-08-16 08:19:00,61.0,57.8,30.22,NE,45,0.0,-999.0,89,0.00,Sunny,,0.00,Open2300\PHP-WU,2013-08-16 12:19:00,
2013-08-16 08:25:00,63.1,59.9,30.23,NNW,337,0.0,-999.0,89,0.00,Sunny,,0.00,Open2300\PHP-WU,2013-08-16 12:25:00,
2013-08-16 08:31:00,64.2,60.7,30.23,North,0,0.0,-999.0,88,0.00,Sunny,,0.00,Open2300\PHP-WU,2013-08-16 12:31:00,
2013-08-16 08:37:00,64.2,60.3,30.22,NNE,22,0.0,-999.0,87,0.00,Sunny,,0.00,Open2300\PHP-WU,2013-08-16 12:37:00,
2013-08-16 08:43:00,64.6,60.7,30.23,NNE,22,0.0,-999.0,87,0.00,Sunny,,0.00,Open2300\PHP-WU,2013-08-16 12:43:00,
2013-08-16 08:49:00,65.1,60.5,30.23,ENE,67,0.0,-999.0,85,0.00,Sunny,,0.00,Open2300\PHP-WU,2013-08-16 12:49:00,
2013-08-16 08:55:00,66.0,61.0,30.23,NNE,22,0.0,-999.0,84,0.00,Sunny,,0.00,Open2300\PHP-WU,2013-08-16 12:55:00,
2013-08-16 09:01:00,66.6,61.2,30.23,NNE,22,0.0,-999.0,83,0.00,Sunny,,0.00,Open2300\PHP-WU,2013-08-16 13:01:00,
2013-08-16 09:07:00,67.3,61.0,30.23,NNE,22,0.0,-999.0,80,0.00,Sunny,,0.00,Open2300\PHP-WU,2013-08-16 13:07:00,
2013-08-16 09:13:00,67.6,60.6,30.23,NNE,22,0.0,-999.0,78,0.00,Sunny,,0.00,Open2300\PHP-WU,2013-08-16 13:13:00,
2013-08-16 09:19:00,67.6,60.6,30.23,North,0,0.0,-999.0,78,0.00,Sunny,,0.00,Open2300\PHP-WU,2013-08-16 13:19:00,
2013-08-16 09:25:00,67.6,60.2,30.23,NNE,22,0.0,-999.0,77,0.00,Sunny,,0.00,Open2300\PHP-WU,2013-08-16 13:25:00,
2013-08-16 09:31:00,67.6,60.2,30.23,NNE,22,0.0,-999.0,77,0.00,Sunny,,0.00,Open2300\PHP-WU,2013-08-16 13:31:00,
2013-08-16 09:37:00,67.8,60.0,30.23,NNE,22,0.0,-999.0,76,0.00,Sunny,,0.00,Open2300\PHP-WU,2013-08-16 13:37:00,
2013-08-16 09:43:00,67.8,60.0,30.25,North,0,0.0,-999.0,76,0.00,Sunny,,0.00,Open2300\PHP-WU,2013-08-16 13:43:00,
2013-08-16 09:49:00,67.8,60.0,30.24,NNE,22,0.0,-999.0,76,0.00,Sunny,,0.00,Open2300\PHP-WU,2013-08-16 13:49:00,
2013-08-16 09:55:00,68.2,60.4,30.24,NNE,22,0.0,-999.0,76,0.00,Sunny,,0.00,Open2300\PHP-WU,2013-08-16 13:55:00,
2013-08-16 10:01:00,68.4,60.5,30.24,NNE,22,0.0,-999.0,76,0.00,Sunny,,0.00,Open2300\PHP-WU,2013-08-16 14:01:00,
2013-08-16 10:07:00,69.1,60.8,30.24,NNE,22,0.0,-999.0,75,0.00,Sunny,,0.00,Open2300\PHP-WU,2013-08-16 14:07:00,
2013-08-16 10:13:00,69.4,60.7,30.24,NNE,22,0.0,-999.0,74,0.00,Sunny,,0.00,Open2300\PHP-WU,2013-08-16 14:13:00,
2013-08-16 10:19:00,69.8,60.7,30.24,NNE,22,0.0,-999.0,73,0.00,Sunny,,0.00,Open2300\PHP-WU,2013-08-16 14:19:00,
2013-08-16 10:25:00,70.2,60.7,30.24,NNE,22,0.0,-999.0,72,0.00,Sunny,,0.00,Open2300\PHP-WU,2013-08-16 14:25:00,
2013-08-16 10:31:00,70.5,60.6,30.24,NNE,22,0.0,-999.0,71,0.00,Sunny,,0.00,Open2300\PHP-WU,2013-08-16 14:31:00,
2013-08-16 10:37:00,70.7,60.4,30.24,North,0,0.0,-999.0,70,0.00,Sunny,,0.00,Open2300\PHP-WU,2013-08-16 14:37:00,
2013-08-16 10:43:00,70.3,60.1,30.24,NNE,22,0.0,-999.0,70,0.00,Sunny,,0.00,Open2300\PHP-WU,2013-08-16 14:43:00,
2013-08-16 10:49:00,70.3,60.5,30.24,North,0,0.0,-999.0,71,0.00,Sunny,,0.00,Open2300\PHP-WU,2013-08-16 14:49:00,
2013-08-16 10:55:00,70.3,60.5,30.24,NNE,22,0.0,-999.0,71,0.00,Sunny,,0.00,Open2300\PHP-WU,2013-08-16 14:55:00,
2013-08-16 11:01:00,70.5,60.6,30.25,NNE,22,0.0,-999.0,71,0.00,Sunny,,0.00,Open2300\PHP-WU,2013-08-16 15:01:00,
2013-08-16 11:07:00,70.5,60.6,30.24,ESE,112,0.0,-999.0,71,0.00,Sunny,,0.00,Open2300\PHP-WU,2013-08-16 15:07:00,
2013-08-16 11:13:00,70.5,60.3,30.24,ENE,67,0.0,-999.0,70,0.00,Sunny,,0.00,Open2300\PHP-WU,2013-08-16 15:13:00,
2013-08-16 11:19:00,70.3,60.1,30.25,NNE,22,0.0,-999.0,70,0.00,Sunny,,0.00,Open2300\PHP-WU,2013-08-16 15:19:00,
2013-08-16 11:25:00,70.2,59.5,30.25,NNE,22,0.0,-999.0,69,0.00,Sunny,,0.00,Open2300\PHP-WU,2013-08-16 15:25:00,
2013-08-16 11:31:00,70.3,60.1,30.25,NNE,22,0.0,-999.0,70,0.00,Sunny,,0.00,Open2300\PHP-WU,2013-08-16 15:31:00,
2013-08-16 11:37:00,70.3,60.1,30.25,NNE,22,0.0,-999.0,70,0.00,Sunny,,0.00,Open2300\PHP-WU,2013-08-16 15:37:00,
2013-08-16 11:43:00,70.3,60.1,30.25,NNE,22,0.0,-999.0,70,0.00,Sunny,,0.00,Open2300\PHP-WU,2013-08-16 15:43:00,
2013-08-16 11:49:00,70.3,60.1,30.24,NNE,22,0.0,-999.0,70,0.00,Sunny,,0.00,Open2300\PHP-WU,2013-08-16 15:49:00,
2013-08-16 11:55:00,70.5,60.3,30.24,NNE,22,0.0,-999.0,70,0.00,Sunny,,0.00,Open2300\PHP-WU,2013-08-16 15:55:00,
2013-08-16 12:01:00,70.7,60.0,30.25,NNE,22,0.0,-999.0,69,0.00,Sunny,,0.00,Open2300\PHP-WU,2013-08-16 16:01:00,
2013-08-16 12:08:00,70.5,59.8,30.25,NNE,22,0.0,-999.0,69,0.00,Sunny,,0.00,Open2300\PHP-WU,2013-08-16 16:08:00,
2013-08-16 12:14:00,70.7,60.4,30.25,East,90,0.0,-999.0,70,0.00,Sunny,,0.00,Open2300\PHP-WU,2013-08-16 16:14:00,
2013-08-16 12:20:00,70.3,59.6,30.25,NW,315,0.0,-999.0,69,0.00,Sunny,,0.00,Open2300\PHP-WU,2013-08-16 16:20:00,
2013-08-16 12:26:00,70.3,60.5,30.25,NNE,22,0.0,-999.0,71,0.00,Sunny,,0.00,Open2300\PHP-WU,2013-08-16 16:26:00,
2013-08-16 12:32:00,70.2,60.3,30.24,SW,225,0.0,-999.0,71,0.00,Sunny,,0.00,Open2300\PHP-WU,2013-08-16 16:32:00,
2013-08-16 12:38:00,70.0,59.7,30.24,North,0,0.0,-999.0,70,0.00,Sunny,,0.00,Open2300\PHP-WU,2013-08-16 16:38:00,
2013-08-16 12:44:00,70.0,59.7,30.25,North,0,0.0,-999.0,70,0.00,Sunny,,0.00,Open2300\PHP-WU,2013-08-16 16:44:00,
2013-08-16 12:50:00,70.3,60.5,30.24,North,0,0.0,-999.0,71,0.00,Sunny,,0.00,Open2300\PHP-WU,2013-08-16 16:50:00,
2013-08-16 12:56:00,70.5,60.3,30.24,North,0,0.0,-999.0,70,0.00,Sunny,,0.00,Open2300\PHP-WU,2013-08-16 16:56:00,
2013-08-16 13:02:00,70.5,60.3,30.23,North,0,0.0,-999.0,70,0.00,Sunny,,0.00,Open2300\PHP-WU,2013-08-16 17:02:00,
2013-08-16 13:08:00,70.3,60.1,30.23,North,0,0.0,-999.0,70,0.00,Sunny,,0.00,Open2300\PHP-WU,2013-08-16 17:08:00,
2013-08-16 13:14:00,70.5,60.3,30.23,North,0,0.0,-999.0,70,0.00,Sunny,,0.00,Open2300\PHP-WU,2013-08-16 17:14:00,
2013-08-16 13:20:00,70.7,60.4,30.23,North,0,0.0,-999.0,70,0.00,Sunny,,0.00,Open2300\PHP-WU,2013-08-16 17:20:00,
2013-08-16 13:26:00,70.9,60.2,30.22,North,0,0.0,-999.0,69,0.00,Sunny,,0.00,Open2300\PHP-WU,2013-08-16 17:26:00,
2013-08-16 13:32:00,71.2,60.5,30.22,North,0,0.0,-999.0,69,0.00,Sunny,,0.00,Open2300\PHP-WU,2013-08-16 17:32:00,
2013-08-16 13:38:00,71.2,60.5,30.22,NNE,22,0.0,-999.0,69,0.00,Sunny,,0.00,Open2300\PHP-WU,2013-08-16 17:38:00,
2013-08-16 13:44:00,71.4,60.7,30.23,SW,225,0.0,-999.0,69,0.00,Sunny,,0.00,Open2300\PHP-WU,2013-08-16 17:44:00,
2013-08-16 13:50:00,71.4,60.3,30.22,North,0,0.0,-999.0,68,0.00,Sunny,,0.00,Open2300\PHP-WU,2013-08-16 17:50:00,
2013-08-16 13:56:00,71.4,60.3,30.22,North,0,0.0,-999.0,68,0.00,Sunny,,0.00,Open2300\PHP-WU,2013-08-16 17:56:00,
2013-08-16 14:02:00,71.2,59.7,30.24,North,0,0.0,-999.0,67,0.00,Sunny,,0.00,Open2300\PHP-WU,2013-08-16 18:02:00,
2013-08-16 14:08:00,71.2,60.1,30.23,North,0,0.0,-999.0,68,0.00,Sunny,,0.00,Open2300\PHP-WU,2013-08-16 18:08:00,
2013-08-16 14:14:00,71.4,60.3,30.24,North,0,0.0,-999.0,68,0.00,Sunny,,0.00,Open2300\PHP-WU,2013-08-16 18:14:00,
2013-08-16 14:20:00,71.8,60.6,30.23,North,0,0.0,-999.0,68,0.00,Sunny,,0.00,Open2300\PHP-WU,2013-08-16 18:20:00,
2013-08-16 14:26:00,71.4,60.3,30.23,North,0,0.0,-999.0,68,0.00,Sunny,,0.00,Open2300\PHP-WU,2013-08-16 18:26:00,
2013-08-16 14:32:00,71.1,59.5,30.22,NNE,22,0.0,-999.0,67,0.00,Sunny,,0.00,Open2300\PHP-WU,2013-08-16 18:32:00,
2013-08-16 14:38:00,70.9,59.3,30.21,NE,45,0.0,-999.0,67,0.00,Sunny,,0.00,Open2300\PHP-WU,2013-08-16 18:38:00,
2013-08-16 14:44:00,70.5,59.4,30.21,NNE,22,0.0,-999.0,68,0.00,Sunny,,0.00,Open2300\PHP-WU,2013-08-16 18:44:00,
2013-08-16 14:50:00,70.3,59.6,30.21,North,0,0.0,-999.0,69,0.00,Sunny,,0.00,Open2300\PHP-WU,2013-08-16 18:50:00,
2013-08-16 14:56:00,70.2,59.9,30.21,NE,45,0.0,-999.0,70,0.00,Sunny,,0.00,Open2300\PHP-WU,2013-08-16 18:56:00,
2013-08-16 15:02:00,70.2,59.9,30.23,North,0,0.0,-999.0,70,0.00,Sunny,,0.00,Open2300\PHP-WU,2013-08-16 19:02:00,
2013-08-16 15:08:00,70.3,60.1,30.23,NNE,22,0.0,-999.0,70,0.00,Sunny,,0.00,Open2300\PHP-WU,2013-08-16 19:08:00,
2013-08-16 15:14:00,70.3,60.5,30.23,NNE,22,0.0,-999.0,71,0.00,Sunny,,0.00,Open2300\PHP-WU,2013-08-16 19:14:00,
2013-08-16 15:20:00,70.2,60.3,30.23,NNE,22,0.0,-999.0,71,0.00,Sunny,,0.00,Open2300\PHP-WU,2013-08-16 19:20:00,
2013-08-16 15:26:00,70.2,60.3,30.22,NE,45,0.0,-999.0,71,0.00,Sunny,,0.00,Open2300\PHP-WU,2013-08-16 19:26:00,
2013-08-16 15:32:00,70.3,60.5,30.22,NE,45,0.0,-999.0,71,0.00,Sunny,,0.00,Open2300\PHP-WU,2013-08-16 19:32:00,
2013-08-16 15:38:00,70.3,60.5,30.22,NE,45,0.0,-999.0,71,0.00,Sunny,,0.00,Open2300\PHP-WU,2013-08-16 19:38:00,
2013-08-16 15:44:00,70.2,59.9,30.22,North,0,0.0,-999.0,70,0.00,Sunny,,0.00,Open2300\PHP-WU,2013-08-16 19:44:00,
2013-08-16 15:49:00,70.3,60.5,30.20,NNW,337,0.0,-999.0,71,0.00,Sunny,,0.00,Open2300\PHP-WU,2013-08-16 19:49:00,
2013-08-16 15:56:00,70.2,60.3,30.21,NNE,22,0.0,-999.0,71,0.00,Sunny,,0.00,Open2300\PHP-WU,2013-08-16 19:56:00,
2013-08-16 16:02:00,70.2,60.3,30.21,NNE,22,0.0,-999.0,71,0.00,Sunny,,0.00,Open2300\PHP-WU,2013-08-16 20:02:00,
2013-08-16 16:08:00,70.2,59.9,30.21,NE,45,0.0,-999.0,70,0.00,Sunny,,0.00,Open2300\PHP-WU,2013-08-16 20:08:00,
2013-08-16 16:13:00,70.2,59.9,30.21,NE,45,0.0,-999.0,70,0.00,Sunny,,0.00,Open2300\PHP-WU,2013-08-16 20:13:00,
2013-08-16 16:20:00,70.0,60.1,30.20,North,0,0.0,-999.0,71,0.00,Sunny,,0.00,Open2300\PHP-WU,2013-08-16 20:20:00,
2013-08-16 16:25:00,70.0,60.1,30.20,NE,45,0.0,-999.0,71,0.00,Sunny,,0.00,Open2300\PHP-WU,2013-08-16 20:25:00,
2013-08-16 16:31:00,69.8,59.9,30.20,NNE,22,0.0,-999.0,71,0.00,Sunny,,0.00,Open2300\PHP-WU,2013-08-16 20:31:00,
2013-08-16 16:37:00,69.8,59.9,30.20,NNE,22,0.0,-999.0,71,0.00,Sunny,,0.00,Open2300\PHP-WU,2013-08-16 20:37:00,
2013-08-16 16:43:00,69.6,59.8,30.20,NE,45,0.0,-999.0,71,0.00,Sunny,,0.00,Open2300\PHP-WU,2013-08-16 20:43:00,
2013-08-16 16:49:00,69.4,60.0,30.21,NNE,22,0.0,-999.0,72,0.00,Sunny,,0.00,Open2300\PHP-WU,2013-08-16 20:49:00,
2013-08-16 16:55:00,69.1,59.6,30.21,NNE,22,0.0,-999.0,72,0.00,Sunny,,0.00,Open2300\PHP-WU,2013-08-16 20:55:00,
2013-08-16 17:02:00,69.1,59.6,30.21,ENE,67,0.0,-999.0,72,0.00,Sunny,,0.00,Open2300\PHP-WU,2013-08-16 21:02:00,
2013-08-16 17:07:00,69.1,60.0,30.20,NE,45,0.0,-999.0,73,0.00,Sunny,,0.00,Open2300\PHP-WU,2013-08-16 21:07:00,
2013-08-16 17:13:00,68.9,59.9,30.20,NE,45,0.0,-999.0,73,0.00,Sunny,,0.00,Open2300\PHP-WU,2013-08-16 21:13:00,
2013-08-16 17:19:00,68.7,59.7,30.20,NNE,22,0.0,-999.0,73,0.00,Sunny,,0.00,Open2300\PHP-WU,2013-08-16 21:19:00,
2013-08-16 17:25:00,68.5,59.5,30.20,North,0,0.0,-999.0,73,0.00,Sunny,,0.00,Open2300\PHP-WU,2013-08-16 21:25:00,
2013-08-16 17:31:00,68.5,59.5,30.21,NNE,22,0.0,-999.0,73,0.00,Sunny,,0.00,Open2300\PHP-WU,2013-08-16 21:31:00,
2013-08-16 17:37:00,68.4,59.4,30.21,NNE,22,0.0,-999.0,73,0.00,Sunny,,0.00,Open2300\PHP-WU,2013-08-16 21:37:00,
2013-08-16 17:43:00,68.4,59.4,30.21,NNE,22,0.0,-999.0,73,0.00,Sunny,,0.00,Open2300\PHP-WU,2013-08-16 21:43:00,
2013-08-16 17:50:00,68.2,59.6,30.21,North,0,0.0,-999.0,74,0.00,Sunny,,0.00,Open2300\PHP-WU,2013-08-16 21:50:00,
2013-08-16 17:55:00,68.2,60.0,30.21,North,0,0.0,-999.0,75,0.00,Sunny,,0.00,Open2300\PHP-WU,2013-08-16 21:55:00,
2013-08-16 18:01:00,68.2,60.0,30.22,North,0,0.0,-999.0,75,0.00,Sunny,,0.00,Open2300\PHP-WU,2013-08-16 22:01:00,
2013-08-16 18:07:00,68.0,60.2,30.21,North,0,0.0,-999.0,76,0.00,Sunny,,0.00,Open2300\PHP-WU,2013-08-16 22:07:00,
2013-08-16 18:13:00,67.8,60.0,30.21,North,0,0.0,-999.0,76,0.00,Sunny,,0.00,Open2300\PHP-WU,2013-08-16 22:13:00,
2013-08-16 18:19:00,67.8,60.0,30.20,NNE,22,0.0,-999.0,76,0.00,Sunny,,0.00,Open2300\PHP-WU,2013-08-16 22:19:00,
2013-08-16 18:25:00,67.8,60.0,30.21,NE,45,0.0,-999.0,76,0.00,Sunny,,0.00,Open2300\PHP-WU,2013-08-16 22:25:00,
2013-08-16 18:31:00,67.8,60.0,30.21,NNE,22,0.0,-999.0,76,0.00,Sunny,,0.00,Open2300\PHP-WU,2013-08-16 22:31:00,
2013-08-16 18:37:00,67.8,60.0,30.21,NNE,22,0.0,-999.0,76,0.00,Sunny,,0.00,Open2300\PHP-WU,2013-08-16 22:37:00,
2013-08-16 18:43:00,67.8,60.0,30.21,NNE,22,0.0,-999.0,76,0.00,Sunny,,0.00,Open2300\PHP-WU,2013-08-16 22:43:00,
2013-08-16 18:49:00,67.8,60.0,30.21,NNE,22,0.0,-999.0,76,0.00,Sunny,,0.00,Open2300\PHP-WU,2013-08-16 22:49:00,
2013-08-16 18:55:00,67.8,60.0,30.21,NNE,22,0.0,-999.0,76,0.00,Sunny,,0.00,Open2300\PHP-WU,2013-08-16 22:55:00,
2013-08-16 19:01:00,67.8,60.0,30.20,NNE,22,0.0,-999.0,76,0.00,Sunny,,0.00,Open2300\PHP-WU,2013-08-16 23:01:00,
2013-08-16 19:07:00,68.2,60.0,30.20,North,0,0.0,-999.0,75,0.00,Sunny,,0.00,Open2300\PHP-WU,2013-08-16 23:07:00,
2013-08-16 19:13:00,68.4,60.1,30.21,North,0,0.0,-999.0,75,0.00,Sunny,,0.00,Open2300\PHP-WU,2013-08-16 23:13:00,
2013-08-16 19:19:00,68.7,60.1,30.20,ENE,67,0.0,-999.0,74,0.00,Sunny,,0.00,Open2300\PHP-WU,2013-08-16 23:19:00,
2013-08-16 19:25:00,68.7,60.1,30.21,North,0,0.0,-999.0,74,0.00,Sunny,,0.00,Open2300\PHP-WU,2013-08-16 23:25:00,
2013-08-16 19:31:00,68.5,59.9,30.21,North,0,0.0,-999.0,74,0.00,Sunny,,0.00,Open2300\PHP-WU,2013-08-16 23:31:00,
2013-08-16 19:37:00,68.5,59.9,30.22,NW,315,0.0,-999.0,74,0.00,Sunny,,0.00,Open2300\PHP-WU,2013-08-16 23:37:00,
2013-08-16 19:43:00,68.2,59.6,30.21,North,0,0.0,-999.0,74,0.00,Sunny,,0.00,Open2300\PHP-WU,2013-08-16 23:43:00,
2013-08-16 19:49:00,67.8,59.6,30.22,NE,45,0.0,-999.0,75,0.00,Sunny,,0.00,Open2300\PHP-WU,2013-08-16 23:49:00,
2013-08-16 19:55:00,67.3,59.1,30.22,West,270,0.0,-999.0,75,0.00,Sunny,,0.00,Open2300\PHP-WU,2013-08-16 23:55:00,
2013-08-16 20:01:00,66.9,59.1,30.23,West,270,0.0,-999.0,76,0.00,Sunny,,0.00,Open2300\PHP-WU,2013-08-17 00:01:00,
2013-08-16 20:07:00,66.6,58.7,30.23,West,270,0.0,-999.0,76,0.00,Sunny,,0.00,Open2300\PHP-WU,2013-08-17 00:07:00,
2013-08-16 20:13:00,65.8,58.4,30.23,West,270,0.0,-999.0,77,0.00,Sunny,,0.00,Open2300\PHP-WU,2013-08-17 00:13:00,
2013-08-16 20:19:00,65.3,58.6,30.23,West,270,0.0,-999.0,79,0.00,Sunny,,0.00,Open2300\PHP-WU,2013-08-17 00:19:00,
2013-08-16 20:25:00,64.9,58.6,30.23,West,270,0.0,-999.0,80,0.00,Sunny,,0.00,Open2300\PHP-WU,2013-08-17 00:25:00,
2013-08-16 20:31:00,64.2,58.3,30.23,West,270,0.0,-999.0,81,0.00,Sunny,,0.00,Open2300\PHP-WU,2013-08-17 00:31:00,
2013-08-16 20:37:00,64.2,58.3,30.23,West,270,0.0,-999.0,81,0.00,Sunny,,0.00,Open2300\PHP-WU,2013-08-17 00:37:00,
2013-08-16 20:43:00,64.0,58.4,30.24,West,270,0.0,-999.0,82,0.00,Sunny,,0.00,Open2300\PHP-WU,2013-08-17 00:43:00,
2013-08-16 20:49:00,64.0,58.8,30.24,West,270,0.0,-999.0,83,0.00,Sunny,,0.00,Open2300\PHP-WU,2013-08-17 00:49:00,
2013-08-16 20:55:00,64.0,58.8,30.24,West,270,0.0,-999.0,83,0.00,Sunny,,0.00,Open2300\PHP-WU,2013-08-17 00:55:00,
2013-08-16 21:01:00,63.9,58.6,30.25,West,270,0.0,-999.0,83,0.00,Sunny,,0.00,Open2300\PHP-WU,2013-08-17 01:01:00,
2013-08-16 21:07:00,63.7,58.4,30.25,West,270,0.0,-999.0,83,0.00,Sunny,,0.00,Open2300\PHP-WU,2013-08-17 01:07:00,
2013-08-16 21:13:00,63.5,58.2,30.25,West,270,0.0,-999.0,83,0.00,Sunny,,0.00,Open2300\PHP-WU,2013-08-17 01:13:00,
2013-08-16 21:19:00,63.3,58.0,30.25,West,270,0.0,-999.0,83,0.00,Sunny,,0.00,Open2300\PHP-WU,2013-08-17 01:19:00,
2013-08-16 21:25:00,63.1,58.2,30.25,West,270,0.0,-999.0,84,0.00,Sunny,,0.00,Open2300\PHP-WU,2013-08-17 01:25:00,
2013-08-16 21:31:00,62.8,57.8,30.25,West,270,0.0,-999.0,84,0.00,Sunny,,0.00,Open2300\PHP-WU,2013-08-17 01:31:00,
2013-08-16 21:37:00,62.4,57.5,30.25,West,270,0.0,-999.0,84,0.00,Sunny,,0.00,Open2300\PHP-WU,2013-08-17 01:37:00,
2013-08-16 21:43:00,62.2,57.7,30.26,West,270,0.0,-999.0,85,0.00,Sunny,,0.00,Open2300\PHP-WU,2013-08-17 01:43:00,
2013-08-16 21:49:00,62.1,57.5,30.26,West,270,0.0,-999.0,85,0.00,Sunny,,0.00,Open2300\PHP-WU,2013-08-17 01:49:00,
2013-08-16 21:55:00,62.1,57.5,30.26,West,270,0.0,-999.0,85,0.00,Sunny,,0.00,Open2300\PHP-WU,2013-08-17 01:55:00,
2013-08-16 22:01:00,62.1,57.5,30.27,West,270,0.0,-999.0,85,0.00,Sunny,,0.00,Open2300\PHP-WU,2013-08-17 02:01:00,
2013-08-16 22:07:00,61.9,57.3,30.27,West,270,0.0,-999.0,85,0.00,Sunny,,0.00,Open2300\PHP-WU,2013-08-17 02:07:00,
2013-08-16 22:13:00,61.9,57.3,30.27,West,270,0.0,-999.0,85,0.00,Sunny,,0.00,Open2300\PHP-WU,2013-08-17 02:13:00,
2013-08-16 22:19:00,62.1,57.8,30.27,West,270,0.0,-999.0,86,0.00,Sunny,,0.00,Open2300\PHP-WU,2013-08-17 02:19:00,
2013-08-16 22:25:00,62.2,58.0,30.26,West,270,0.0,-999.0,86,0.00,Sunny,,0.00,Open2300\PHP-WU,2013-08-17 02:25:00,
2013-08-16 22:31:00,62.1,57.8,30.26,West,270,0.0,-999.0,86,0.00,Sunny,,0.00,Open2300\PHP-WU,2013-08-17 02:31:00,
2013-08-16 22:37:00,61.9,57.7,30.26,West,270,0.0,-999.0,86,0.00,Sunny,,0.00,Open2300\PHP-WU,2013-08-17 02:37:00,
2013-08-16 22:43:00,61.7,57.5,30.26,West,270,0.0,-999.0,86,0.00,Sunny,,0.00,Open2300\PHP-WU,2013-08-17 02:43:00,
2013-08-16 22:49:00,61.5,57.3,30.26,West,270,0.0,-999.0,86,0.00,Sunny,,0.00,Open2300\PHP-WU,2013-08-17 02:49:00,
2013-08-16 22:55:00,61.5,57.3,30.26,West,270,0.0,-999.0,86,0.00,Sunny,,0.00,Open2300\PHP-WU,2013-08-17 02:55:00,
2013-08-16 23:01:00,61.3,57.1,30.25,West,270,0.0,-999.0,86,0.00,Sunny,,0.00,Open2300\PHP-WU,2013-08-17 03:01:00,
2013-08-16 23:07:00,61.3,57.1,30.25,West,270,0.0,-999.0,86,0.00,Sunny,,0.00,Open2300\PHP-WU,2013-08-17 03:07:00,
2013-08-16 23:13:00,61.2,57.3,30.25,West,270,0.0,-999.0,87,0.00,Sunny,,0.00,Open2300\PHP-WU,2013-08-17 03:13:00,
2013-08-16 23:19:00,61.2,57.3,30.25,West,270,0.0,-999.0,87,0.00,Sunny,,0.00,Open2300\PHP-WU,2013-08-17 03:19:00,
2013-08-16 23:25:00,61.2,57.3,30.25,West,270,0.0,-999.0,87,0.00,Sunny,,0.00,Open2300\PHP-WU,2013-08-17 03:25:00,
2013-08-16 23:31:00,61.0,57.1,30.25,West,270,0.0,-999.0,87,0.00,Sunny,,0.00,Open2300\PHP-WU,2013-08-17 03:31:00,
2013-08-16 23:37:00,61.0,57.1,30.25,West,270,0.0,-999.0,87,0.00,Sunny,,0.00,Open2300\PHP-WU,2013-08-17 03:37:00,
2013-08-16 23:43:00,61.2,57.3,30.25,NNE,22,0.0,-999.0,87,0.00,Sunny,,0.00,Open2300\PHP-WU,2013-08-17 03:43:00,
2013-08-16 23:49:00,61.2,57.3,30.25,NNE,22,0.0,-999.0,87,0.00,Sunny,,0.00,Open2300\PHP-WU,2013-08-17 03:49:00,
2013-08-16 23:55:00,61.2,57.3,30.25,NNE,22,0.0,-999.0,87,0.00,Sunny,,0.00,Open2300\PHP-WU,2013-08-17 03:55:00,